Flag for India Weather past 2 weeks in Amritsar, Punjab, India

Now
81 °F

Fog.


Feels Like: 88 °F
Forecast: 74 / 96 °F
Wind: No wind

Location: Amritsar Airport

Current Time: Oct 2, 2014 at 10:08:10 PM

Latest Report: Oct 2, 2014 at 9:30 PM


Visibility: 2 mi

Pressure: 29.83 "Hg

Humidity: 94%

Dew point: 79 °F

Location of AmritsarLocation

Historic Weather in Amritsar — Graph

°F

Amritsar temperature yesterday

Maximum temperature yesterday: 93 °F (at 1:30 PM)
Minimum temperature yesterday: 75 °F (at 3:00 AM)
Average temperature yesterday: 82 °F

Past Weeks' High & Low Weather Summary

 TemperatureHumidityPressure
High95 °F (Sep 18, 3:00 PM)100% (Sep 18, 2:30 AM)29.95 "Hg (Sep 18, 2:30 AM)
Low72 °F (Sep 29, 3:30 AM)44% (Sep 28, 2:00 PM)29.59 "Hg (Sep 20, 3:30 PM)
Average83 °F80%29.76 "Hg
* Reported Sep 17 8:30 PM — Oct 2 8:30 PM, Amritsar, Weather by CustomWeather, © 2014

Note: Actual official high and low records may vary slightly from our data, if they occured in-between our weather recording intervals... More about our weather records

Advertising

Amritsar weather history for previous 24 hours

 ConditionsComfort  
Time TempWeatherWind HumidityBarometerVisibility
8:30 PM
Oct 2
82 °FFog.No wind84%29.83 "Hg2 mi
8:00 PM82 °FFog.No wind84%29.83 "Hg2 mi
7:30 PM82 °FFog.No wind89%29.83 "Hg2 mi
7:00 PM84 °FPassing clouds.No wind79%29.80 "Hg2 mi
6:30 PM86 °FScattered clouds.No wind70%29.80 "Hg2 mi
6:00 PM88 °FScattered clouds.No wind66%29.80 "Hg2 mi
5:30 PM88 °FScattered clouds.No wind66%29.80 "Hg2 mi
5:00 PM90 °FScattered clouds.No wind63%29.83 "Hg2 mi
4:30 PM90 °FScattered clouds.No wind67%29.83 "Hg2 mi
4:00 PM91 °FScattered clouds.No wind59%29.83 "Hg2 mi
3:30 PM91 °FScattered clouds.No wind59%29.83 "Hg2 mi
2:30 PM91 °FScattered clouds.No wind59%29.86 "Hg2 mi
2:00 PM90 °FPartly sunny.No wind59%29.86 "Hg2 mi
1:30 PM91 °FHaze.1 mph56%29.86 "Hg2 mi
1:00 PM91 °FHaze.1 mph56%29.89 "Hg2 mi
12:30 PM91 °FHaze.No wind59%29.89 "Hg2 mi
12:00 PM90 °FHaze.3 mph63%29.92 "Hg2 mi
11:30 AM90 °FHaze.3 mph63%29.92 "Hg2 mi
10:30 AM86 °FFog.2 mph70%29.95 "Hg2 mi
10:00 AM86 °FFog.No wind75%29.95 "Hg2 mi
9:30 AM82 °FFog.No wind84%29.95 "Hg1 mi
9:00 AM81 °FFog.No wind89%29.95 "Hg1 mi
8:30 AM81 °FFog.2 mph89%29.92 "Hg1 mi
8:00 AM79 °FFog.No wind94%29.92 "Hg1 mi
7:30 AM77 °FFog.No wind100%29.89 "Hg1 mi
7:00 AM75 °FFog.No wind100%29.89 "Hg1 mi
6:30 AM75 °FFog.No wind100%29.89 "Hg1 mi
6:00 AM75 °FFog.No wind100%29.86 "Hg1 mi
5:30 AM75 °FFog.No wind100%29.86 "Hg1 mi
5:00 AM75 °FFog.No wind100%29.86 "Hg1 mi
4:30 AM75 °FFog.No wind100%29.86 "Hg1 mi
3:00 AM77 °FFog.No wind94%29.86 "Hg1 mi
2:30 AM77 °FFog.No wind94%29.86 "Hg1 mi
2:00 AM77 °FFog.No wind94%29.86 "Hg1 mi
1:00 AM77 °FFog.No wind89%29.86 "Hg1 mi
12:30 AM79 °FFog.No wind84%29.89 "Hg1 mi
12:00 AM79 °FFog.No wind84%29.89 "Hg1 mi
11:30 PM
Oct 1
79 °FFog.No wind84%29.89 "Hg1 mi
11:00 PM79 °FFog.No wind84%29.89 "Hg1 mi
10:30 PM79 °FFog.No wind84%29.89 "Hg1 mi
10:00 PM81 °FFog.No wind79%29.89 "Hg1 mi
Weather by CustomWeather, © 2014

See weather overviewHow to use our weather pages